Effective Sunday, March 17, 2024, the National Weather Service National Data Buoy Center will discontinue its Dial-A-Buoy Interactive Voice Response system. For more information, see Service Change Notice 24-06 (PDF).

Station KGNA - Bay of Grand Marais, MN Image indicating link to RSS feed of recent meteorological observations for station KGNA


Conditions at KGNA as of
(12:56 pm CST)
1856 GMT on 03/03/2024:
     

Click on the graph icon in the table below to see a time series plot of the last five days of that observation.

5-day plot - Wind Direction Wind Direction (WDIR): E ( 90 deg true )
5-day plot - Wind Speed Wind Speed (WSPD): 22.9 kts
5-day plot - Wind Gust Wind Gust (GST): 35.9 kts
5-day plot - Atmospheric Pressure Atmospheric Pressure (PRES):29.69 in
5-day plot - Air Temperature Air Temperature (ATMP): 39.0 °F
5-day plot - Dew Point Dew Point (DEWP): 35.1 °F
5-day plot -  Wind Speed, Wind Gust and Atmospheric Pressure Combined plot of Wind Speed, Gust, and Air Pressure
Previous observations
TIME
(CST)
5-day plot - Wind Direction
WDIR
 
5-day plot - Wind Speed
WSPD
kts
5-day plot - Wind Gust
GST
kts
5-day plot - Wave Height
WVHT
ft
5-day plot - Dominant Wave Period
DPD
sec
5-day plot - Average Wave Period
APD
sec
5-day plot - Mean Wave Direction
MWD
 
5-day plot - Atmospheric Pressure
PRES
in
5-day plot - Pressure Tendency
PTDY
in
5-day plot - Air Temperature
ATMP
°F
5-day plot - Water Temperature
WTMP
°F
5-day plot - Dew Point
DEWP
°F
5-day plot - Salinity
SAL
psu
5-day plot - Visibility
VIS
nmi
5-day plot - Tide (above MLLW)
TIDE
ft
2024-03-03 11:56 am E 22.9 36.9----29.73- 39.0- 35.1---
2024-03-03 10:56 am E 19.0 31.1----29.76- 39.0- 34.0---
2024-03-03 09:56 am E 20.0 31.1----29.77- 39.9- 34.0---
2024-03-03 08:56 am E 17.1 25.1----29.79- 39.0- 34.0---
2024-03-03 07:56 am E 15.0 28.9----29.80- 39.9- 34.0---
2024-03-03 06:56 am E 15.9 24.1----29.83- 39.0- 33.1---
2024-03-03 05:56 amENE 13.0 22.9----29.84- 39.9- 33.1---
2024-03-03 04:56 amENE 12.0 20.0----29.85- 39.0- 32.0---
2024-03-03 03:56 amENE 8.9 15.9----29.85- 39.9- 32.0---
2024-03-03 02:56 am E 11.1 20.0----29.88- 41.0- 32.0---
2024-03-03 01:56 am E 14.0 22.9----29.90- 41.0- 32.0---
2024-03-03 12:56 am E 14.0 24.1----29.93- 41.0- 32.0---
2024-03-02 11:56 pm E 17.1 26.0----29.92- 42.1- 30.9---
2024-03-02 10:56 pm E 13.0 27.0----29.93- 41.0- 30.0---
2024-03-02 09:56 pm E 17.1 28.0----29.92- 42.1- 28.9---
2024-03-02 08:56 pmENE 12.0-----29.93- 42.1- 28.0---
2024-03-02 07:56 pmENE 12.0 20.0----29.93- 42.1- 28.0---
2024-03-02 06:56 pmENE 12.0 19.0----29.93- 42.1- 28.0---
2024-03-02 05:56 pm E 9.9-----29.94- 37.9- 30.9---
2024-03-02 04:56 pm E 11.1-----29.94- 39.0- 30.0---
2024-03-02 03:56 pm E 9.9-----29.97- 39.0- 30.9---
2024-03-02 02:56 pm E 14.0 22.0----29.93- 37.9- 30.9---
2024-03-02 01:56 pm E 12.0 20.0----29.95- 39.0- 30.9---
2024-03-02 12:56 pm E 8.0-----29.95- 39.9- 32.0---